Content
SEND FEEDBACK

Daily
Averages
Monthly
Summary
Spain

ZARAGOZA, SPAIN


Home > Europe > Spain
Elevation: 846 feet     Latitude: 41 40N     Longitude: 001 01W

WEATHER
 
SELECT A DAY
Number of Records: 313,744;   Date Range: 7/1/96 - 7/26/14
 
SHARE

PRINT THIS DATA

[ ← Previous Day ]
WEATHER ALMANAC - MARCH 31, 2013
[ Next Day → ]
[ °C ]   °F
Weather ElementAverageHighLow
Temperature55 °F66.2 °F (5:00 pm)42.8 °F (8:30 am)
Dewpoint43 °F47 °F (1:00 am)39.2 °F (3:30 pm)
Humidity66.2 %93 % (3:00 am)38 % (8:00 pm)
Barometer29.72 in29.92 in (1:00 am)29.50 in (11:30 pm)
Wind Speed5.3 mph12.7 mph (8:00 pm)
Weather ElementAverage
Visibility8 mi
Wind DirectionSW (220.4 °)

Weather ElementTotal
Precipitation---
Heating Degree Days10.5 (Base 65)
Growing Degree Days4.5 (Base 50)
Averaged from 50 records on March 31, 2013
WEATHER CONDITIONS BREAKOUT
WIND DIRECTION BREAKOUT
WEATHER BY HOUR - MARCH 31, 2013
[ °C ]   °F
Local TimeTemperatureDewpointHumidityBarometerVisibilityWind DirectionWind SpeedGust SpeedPrecipitationEventsConditions
12:30 AM50.0 °F44.6 °F82 %29.89 in6.2 miWest (270°)5.8 mphMostly Cloudy
12:30 AM57.2 °F46.4 °F67 %29.50 in6.2 miSouth (180°)6.9 mphMostly Cloudy
1:00 AM48.2 °F44.6 °F87 %29.89 in6.2 miWest (280°)5.8 mphMostly Cloudy
1:00 AM49.0 °F47.0 °F89 %29.92 in9.0 miWest (280°)6.9 mphPartly Cloudy
1:30 AM50.0 °F46.4 °F87 %29.89 in6.2 miVariable2.3 mphMostly Cloudy
3:00 AM48.2 °F46.4 °F93 %29.86 in6.2 miNorth (360°)2.3 mphScattered Clouds
3:30 AM46.4 °F44.6 °F93 %29.86 in6.2 miNNW (340°)2.3 mphScattered Clouds
4:00 AM46.4 °F44.6 °F93 %29.86 in6.2 miVariable1.2 mphScattered Clouds
4:30 AM44.6 °F42.8 °F93 %29.83 in6.2 miWest (270°)4.6 mphScattered Clouds
5:00 AM46.4 °F42.8 °F87 %29.83 in6.2 miWNW (290°)4.6 mphPartly Cloudy
5:30 AM44.6 °F42.8 °F93 %29.83 in6.2 miNW (320°)3.5 mphPartly Cloudy
6:00 AM44.6 °F42.8 °F93 %29.83 in6.2 miWest (270°)3.5 mphMostly Cloudy
6:30 AM44.6 °F42.8 °F93 %29.83 in6.2 miNW (310°)2.3 mphMostly Cloudy
7:00 AM44.6 °F42.8 °F93 %29.80 in6.2 miWSW (250°)4.6 mphPartly Cloudy
7:30 AM44.6 °F41.0 °F87 %29.80 in6.2 miWest (260°)4.6 mphPartly Cloudy
8:00 AM46.4 °F41.0 °F81 %29.80 inWest (260°)8.1 mphClear
8:00 AM45.0 °F41.0 °F80 %29.82 in12.0 miWSW (250°)4.6 mphClear
8:30 AM42.8 °F41.0 °F93 %29.80 inNW (310°)5.8 mphClear
9:00 AM46.4 °F42.8 °F87 %29.80 inWest (270°)3.5 mphClear
9:30 AM50.0 °F44.6 °F82 %29.80 inWNW (300°)3.5 mphClear
10:00 AM51.8 °F44.6 °F76 %29.80 inNW (320°)5.8 mphClear
10:30 AM53.6 °F42.8 °F67 %29.80 inWNW (300°)8.1 mphClear
11:00 AM55.4 °F42.8 °F63 %29.80 inWNW (290°)8.1 mphClear
11:30 AM55.4 °F42.8 °F63 %29.77 inNW (310°)8.1 mphClear
12:00 PM57.2 °F44.6 °F63 %29.77 inNW (310°)8.1 mphClear
12:30 PM57.2 °F44.6 °F63 %29.77 inWNW (300°)5.8 mphClear
1:00 PM59.0 °F41.0 °F51 %29.77 in6.2 miWNW (300°)2.3 mphPartly Cloudy
1:30 PM59.0 °F41.0 °F51 %29.74 in6.2 miVariable1.2 mphPartly Cloudy
2:00 PM60.0 °F42.0 °F39 %29.74 in37.0 miNW (310°)4.6 mphScattered Clouds
2:00 PM60.8 °F41.0 °F48 %29.74 in6.2 miNNW (330°)3.5 mphPartly Cloudy
2:30 PM60.8 °F41.0 °F48 %29.71 in6.2 miNW (310°)3.5 mphPartly Cloudy
3:00 PM62.6 °F42.8 °F48 %29.68 in6.2 miVariable2.3 mphPartly Cloudy
3:30 PM62.6 °F39.2 °F42 %29.68 in6.2 miNorth (360°)3.5 mphPartly Cloudy
4:00 PM64.4 °F39.2 °F40 %29.65 in6.2 miNorth (360°)1.2 mphPartly Cloudy
4:30 PM64.4 °F39.2 °F40 %29.65 in6.2 miWNW (290°)2.3 mphPartly Cloudy
5:00 PM66.2 °F42.8 °F43 %29.62 in6.2 miSSW (200°)1.2 mphScattered Clouds
5:30 PM64.4 °F41.0 °F42 %29.62 in6.2 miEast (90°)3.5 mphScattered Clouds
6:00 PM64.4 °F42.8 °F45 %29.59 in6.2 miESE (110°)3.5 mphPartly Cloudy
6:30 PM64.4 °F41.0 °F42 %29.59 in6.2 miVariable1.2 mphPartly Cloudy
7:00 PM62.6 °F42.8 °F48 %29.59 in6.2 miEast (80°)4.6 mphPartly Cloudy
7:30 PM62.6 °F42.8 °F48 %29.56 in6.2 miESE (110°)5.8 mphPartly Cloudy
8:00 PM64.0 °F44.0 °F38 %29.57 in37.0 miSE (130°)8.1 mphScattered Clouds
8:00 PM62.6 °F42.8 °F48 %29.56 in6.2 miSE (130°)12.7 mphPartly Cloudy
8:30 PM60.8 °F44.6 °F55 %29.56 in6.2 miSE (130°)11.5 mphPartly Cloudy
9:00 PM60.8 °F42.8 °F52 %29.53 in6.2 miSE (130°)10.4 mphScattered Clouds
9:30 PM59.0 °F44.6 °F59 %29.53 in6.2 miSE (130°)10.4 mphScattered Clouds
10:00 PM59.0 °F44.6 °F59 %29.56 in6.2 miSSE (150°)9.2 mphPartly Cloudy
10:30 PM59.0 °F44.6 °F59 %29.53 in6.2 miSSE (150°)9.2 mphPartly Cloudy
11:00 PM59.0 °F44.6 °F59 %29.53 in6.2 miSSE (150°)11.5 mphScattered Clouds
11:30 PM59.0 °F44.6 °F59 %29.50 in6.2 miSouth (170°)8.1 mphScattered Clouds
Hourly data recorded from LEZG, located miles away from Zaragoza, Spain







STORIES FROM OUR PARTNERS